Powrót do katalogu

STARLINK-5085

AktywnyŁącznośćVLEO
NORAD 55392·PAYLOAD·🇺🇸 United States

Wystrzelony Jan 31, 2023 z Vandenberg Space Force Base

Loading…

Następne Przeloty (najbliższe 24 godziny)

TLE

ŚwieżeSource: CelesTrak SupGP

Epoka: Sep 15, 2026, 01:51 UTC

1 55392C 23014B   26258.07756944  .00010064  00000+0  84308-3 0  2583
2 55392  69.9998 286.8310 0003765 265.8857 317.9649 14.98337501    17

Śledź STARLINK-5085 w czasie rzeczywistym z AllMySat

Download on the App Store